owner,sensor,date,latitude,longitude,air_pressure(mBar),qcFlag 
TABS,ioos:station:wmo:42047:1,2012-10-01T00:00:00Z,27.8966,-93.5973,1004.54,11111222 
TABS,ioos:station:wmo:42047:1,2012-10-01T00:30:00Z,27.8966,-93.5973,1004.54,11111222 
TABS,ioos:station:wmo:42047:1,2012-10-01T01:00:00Z,27.8966,-93.5973,1004.86,11111222 
TABS,ioos:station:wmo:42047:1,2012-10-01T01:30:00Z,27.8966,-93.5973,1005.22,11111222 
TABS,ioos:station:wmo:42047:1,2012-10-01T02:00:00Z,27.8966,-93.5973,1005.64,11111222 
TABS,ioos:station:wmo:42047:1,2012-10-01T02:30:00Z,27.8966,-93.5973,1005.99,11111222 
TABS,ioos:station:wmo:42047:1,2012-10-01T03:00:00Z,27.8966,-93.5973,1006.07,11111222 
TABS,ioos:station:wmo:42047:1,2012-10-01T03:30:00Z,27.8966,-93.5973,1006.12,11111222 
TABS,ioos:station:wmo:42047:1,2012-10-01T04:00:00Z,27.8966,-93.5973,1006.07,11111222 
TABS,ioos:station:wmo:42047:1,2012-10-01T04:30:00Z,27.8966,-93.5973,1006.21,11111222 
TABS,ioos:station:wmo:42047:1,2012-10-01T05:00:00Z,27.8966,-93.5973,1005.72,11111222 
TABS,ioos:station:wmo:42047:1,2012-10-01T05:30:00Z,27.8966,-93.5973,1005.65,11111222 
TABS,ioos:station:wmo:42047:1,2012-10-01T06:00:00Z,27.8966,-93.5973,1005.66,11111222 
TABS,ioos:station:wmo:42047:1,2012-10-01T06:30:00Z,27.8966,-93.5973,1005.7,11111222 
TABS,ioos:station:wmo:42047:1,2012-10-01T07:00:00Z,27.8966,-93.5973,1005.8,11111222 
TABS,ioos:station:wmo:42047:1,2012-10-01T07:30:00Z,27.8966,-93.5973,1005.85,11111222 
TABS,ioos:station:wmo:42047:1,2012-10-01T08:00:00Z,27.8966,-93.5973,1006.05,11111222 
TABS,ioos:station:wmo:42047:1,2012-10-01T08:30:00Z,27.8966,-93.5973,1005.98,11111222 
TABS,ioos:station:wmo:42047:1,2012-10-01T09:00:00Z,27.8966,-93.5973,1005.94,11111222 
TABS,ioos:station:wmo:42047:1,2012-10-01T09:30:00Z,27.8966,-93.5973,1006.2,11111222 
TABS,ioos:station:wmo:42047:1,2012-10-01T10:00:00Z,27.8966,-93.5973,1006.28,11111222 
TABS,ioos:station:wmo:42047:1,2012-10-01T10:30:00Z,27.8966,-93.5973,1006.5,11111222 
TABS,ioos:station:wmo:42047:1,2012-10-01T11:00:00Z,27.8966,-93.5973,1006.85,11111222 
TABS,ioos:station:wmo:42047:1,2012-10-01T11:30:00Z,27.8966,-93.5973,1007.11,11111222 
TABS,ioos:station:wmo:42047:1,2012-10-01T12:00:00Z,27.8966,-93.5973,1007.39,11111222 
TABS,ioos:station:wmo:42047:1,2012-10-01T12:30:00Z,27.8966,-93.5973,1007.58,11111222 
TABS,ioos:station:wmo:42047:1,2012-10-01T13:00:00Z,27.8966,-93.5973,1008.18,11111222 
TABS,ioos:station:wmo:42047:1,2012-10-01T13:30:00Z,27.8966,-93.5973,1008.32,11111222 
TABS,ioos:station:wmo:42047:1,2012-10-01T14:00:00Z,27.8966,-93.5973,1008.96,11111222 
TABS,ioos:station:wmo:42047:1,2012-10-01T14:30:00Z,27.8966,-93.5973,1009.12,11111222 
TABS,ioos:station:wmo:42047:1,2012-10-01T15:00:00Z,27.8966,-93.5973,1009.24,11111222 
TABS,ioos:station:wmo:42047:1,2012-10-01T15:30:00Z,27.8966,-93.5973,1009.24,11111222 
TABS,ioos:station:wmo:42047:1,2012-10-01T16:00:00Z,27.8966,-93.5973,1009.51,11111222 
TABS,ioos:station:wmo:42047:1,2012-10-01T16:30:00Z,27.8966,-93.5973,1009.42,11111222 
TABS,ioos:station:wmo:42047:1,2012-10-01T17:00:00Z,27.8966,-93.5973,1009.18,11111222 
TABS,ioos:station:wmo:42047:1,2012-10-01T17:30:00Z,27.8966,-93.5973,1009.08,11111222 
TABS,ioos:station:wmo:42047:1,2012-10-01T18:00:00Z,27.8966,-93.5973,1008.79,11111222 
TABS,ioos:station:wmo:42047:1,2012-10-01T18:30:00Z,27.8966,-93.5973,1008.64,11111222 
TABS,ioos:station:wmo:42047:1,2012-10-01T19:00:00Z,27.8966,-93.5973,1008.28,11111222 
TABS,ioos:station:wmo:42047:1,2012-10-01T19:30:00Z,27.8966,-93.5973,1008.23,11111222 
TABS,ioos:station:wmo:42047:1,2012-10-01T20:00:00Z,27.8966,-93.5973,1008.21,11111222 
TABS,ioos:station:wmo:42047:1,2012-10-01T20:30:00Z,27.8966,-93.5973,1007.95,11111222 
TABS,ioos:station:wmo:42047:1,2012-10-01T21:00:00Z,27.8966,-93.5973,1007.85,11111222 
TABS,ioos:station:wmo:42047:1,2012-10-01T21:30:00Z,27.8966,-93.5973,1007.8,11111222 
TABS,ioos:station:wmo:42047:1,2012-10-01T22:00:00Z,27.8966,-93.5973,1007.83,11111222 
TABS,ioos:station:wmo:42047:1,2012-10-01T22:30:00Z,27.8966,-93.5973,1007.71,11111222 
TABS,ioos:station:wmo:42047:1,2012-10-01T23:00:00Z,27.8966,-93.5973,1007.7,11111222 
TABS,ioos:station:wmo:42047:1,2012-10-01T23:30:00Z,27.8966,-93.5973,1007.87,11111222 
TABS,ioos:station:wmo:42047:1,2012-10-02T00:00:00Z,27.8966,-93.5973,1007.97,11111222 
TABS,ioos:station:wmo:42047:1,2012-10-02T00:30:00Z,27.8966,-93.5973,1008.03,11111222 
TABS,ioos:station:wmo:42047:1,2012-10-02T01:00:00Z,27.8966,-93.5973,1008.35,11111222 
TABS,ioos:station:wmo:42047:1,2012-10-02T01:30:00Z,27.8966,-93.5973,1008.54,11111222 
TABS,ioos:station:wmo:42047:1,2012-10-02T02:00:00Z,27.8966,-93.5973,1008.99,11111222 
TABS,ioos:station:wmo:42047:1,2012-10-02T02:30:00Z,27.8966,-93.5973,1009.19,11111222 
TABS,ioos:station:wmo:42047:1,2012-10-02T03:00:00Z,27.8966,-93.5973,1009.37,11111222 
TABS,ioos:station:wmo:42047:1,2012-10-02T03:30:00Z,27.8966,-93.5973,1009.51,11111222 
TABS,ioos:station:wmo:42047:1,2012-10-02T04:00:00Z,27.8966,-93.5973,1009.66,11111222 
TABS,ioos:station:wmo:42047:1,2012-10-02T04:30:00Z,27.8966,-93.5973,1009.77,11111222 
TABS,ioos:station:wmo:42047:1,2012-10-02T05:00:00Z,27.8966,-93.5973,1009.84,11111222 
TABS,ioos:station:wmo:42047:1,2012-10-02T05:30:00Z,27.8966,-93.5973,1009.95,11111222 
TABS,ioos:station:wmo:42047:1,2012-10-02T06:00:00Z,27.8966,-93.5973,1009.87,11111222 
TABS,ioos:station:wmo:42047:1,2012-10-02T06:30:00Z,27.8966,-93.5973,1010.07,11111222 
TABS,ioos:station:wmo:42047:1,2012-10-02T07:00:00Z,27.8966,-93.5973,1010.03,11111222 
TABS,ioos:station:wmo:42047:1,2012-10-02T07:30:00Z,27.8966,-93.5973,1009.92,11111222 
TABS,ioos:station:wmo:42047:1,2012-10-02T08:00:00Z,27.8966,-93.5973,1010.01,11111222 
TABS,ioos:station:wmo:42047:1,2012-10-02T08:30:00Z,27.8966,-93.5973,1009.76,11111222 
TABS,ioos:station:wmo:42047:1,2012-10-02T09:00:00Z,27.8966,-93.5973,1009.7,11111222 
TABS,ioos:station:wmo:42047:1,2012-10-02T09:30:00Z,27.8966,-93.5973,1009.71,11111222 
TABS,ioos:station:wmo:42047:1,2012-10-02T10:00:00Z,27.8966,-93.5973,1009.87,11111222 
TABS,ioos:station:wmo:42047:1,2012-10-02T10:30:00Z,27.8966,-93.5973,1010.24,11111222 
TABS,ioos:station:wmo:42047:1,2012-10-02T11:00:00Z,27.8966,-93.5973,1010.43,11111222 
TABS,ioos:station:wmo:42047:1,2012-10-02T11:30:00Z,27.8966,-93.5973,1010.47,11111222 
TABS,ioos:station:wmo:42047:1,2012-10-02T12:00:00Z,27.8966,-93.5973,1010.73,11111222 
TABS,ioos:station:wmo:42047:1,2012-10-02T12:30:00Z,27.8966,-93.5973,1010.99,11111222 
TABS,ioos:station:wmo:42047:1,2012-10-02T13:00:00Z,27.8966,-93.5973,1011.47,11111222 
TABS,ioos:station:wmo:42047:1,2012-10-02T13:30:00Z,27.8966,-93.5973,1011.73,11111222 
TABS,ioos:station:wmo:42047:1,2012-10-02T14:00:00Z,27.8966,-93.5973,1012.13,11111222 
TABS,ioos:station:wmo:42047:1,2012-10-02T14:30:00Z,27.8966,-93.5973,1012.36,11111222 
TABS,ioos:station:wmo:42047:1,2012-10-02T15:00:00Z,27.8966,-93.5973,1012.54,11111222 
TABS,ioos:station:wmo:42047:1,2012-10-02T15:30:00Z,27.8966,-93.5973,1012.53,11111222 
TABS,ioos:station:wmo:42047:1,2012-10-02T16:00:00Z,27.8966,-93.5973,1012.53,11111222 
TABS,ioos:station:wmo:42047:1,2012-10-02T16:30:00Z,27.8966,-93.5973,1012.68,11111222 
TABS,ioos:station:wmo:42047:1,2012-10-02T17:00:00Z,27.8966,-93.5973,1012.69,11111222 
TABS,ioos:station:wmo:42047:1,2012-10-02T17:30:00Z,27.8966,-93.5973,1012.59,11111222 
TABS,ioos:station:wmo:42047:1,2012-10-02T18:00:00Z,27.8966,-93.5973,1012.32,11111222 
TABS,ioos:station:wmo:42047:1,2012-10-02T18:30:00Z,27.8966,-93.5973,1012.08,11111222 
TABS,ioos:station:wmo:42047:1,2012-10-02T19:00:00Z,27.8966,-93.5973,1011.92,11111222 
TABS,ioos:station:wmo:42047:1,2012-10-02T19:30:00Z,27.8966,-93.5973,1011.61,11111222 
TABS,ioos:station:wmo:42047:1,2012-10-02T20:00:00Z,27.8966,-93.5973,1011.46,11111222 
TABS,ioos:station:wmo:42047:1,2012-10-02T20:30:00Z,27.8966,-93.5973,1011.5,11111222 
TABS,ioos:station:wmo:42047:1,2012-10-02T21:00:00Z,27.8966,-93.5973,1011.56,11111222 
TABS,ioos:station:wmo:42047:1,2012-10-02T21:30:00Z,27.8966,-93.5973,1011.65,11111222 
TABS,ioos:station:wmo:42047:1,2012-10-02T22:00:00Z,27.8966,-93.5973,1011.79,11111222 
TABS,ioos:station:wmo:42047:1,2012-10-02T22:30:00Z,27.8966,-93.5973,1011.69,11111222 
TABS,ioos:station:wmo:42047:1,2012-10-02T23:00:00Z,27.8966,-93.5973,1011.76,11111222 
TABS,ioos:station:wmo:42047:1,2012-10-02T23:30:00Z,27.8966,-93.5973,1011.89,11111222 
TABS,ioos:station:wmo:42047:1,2012-10-03T00:00:00Z,27.8966,-93.5973,1012.09,11111222 
TABS,ioos:station:wmo:42047:1,2012-10-03T00:30:00Z,27.8966,-93.5973,1012.31,11111222 
TABS,ioos:station:wmo:42047:1,2012-10-03T01:00:00Z,27.8966,-93.5973,1012.62,11111222 
TABS,ioos:station:wmo:42047:1,2012-10-03T01:30:00Z,27.8966,-93.5973,1013.07,11111222 
TABS,ioos:station:wmo:42047:1,2012-10-03T02:00:00Z,27.8966,-93.5973,1013.36,11111222 
TABS,ioos:station:wmo:42047:1,2012-10-03T02:30:00Z,27.8966,-93.5973,1013.66,11111222 
TABS,ioos:station:wmo:42047:1,2012-10-03T03:00:00Z,27.8966,-93.5973,1014.02,11111222 
TABS,ioos:station:wmo:42047:1,2012-10-03T03:30:00Z,27.8966,-93.5973,1014.33,11111222 
TABS,ioos:station:wmo:42047:1,2012-10-03T04:00:00Z,27.8966,-93.5973,1014.44,11111222 
TABS,ioos:station:wmo:42047:1,2012-10-03T04:30:00Z,27.8966,-93.5973,1014.5,11111222 
TABS,ioos:station:wmo:42047:1,2012-10-03T05:00:00Z,27.8966,-93.5973,1014.35,11111222 
TABS,ioos:station:wmo:42047:1,2012-10-03T05:30:00Z,27.8966,-93.5973,1014.32,11111222 
TABS,ioos:station:wmo:42047:1,2012-10-03T06:00:00Z,27.8966,-93.5973,1014.36,11111222 
TABS,ioos:station:wmo:42047:1,2012-10-03T06:30:00Z,27.8966,-93.5973,1014.4,11111222 
TABS,ioos:station:wmo:42047:1,2012-10-03T07:00:00Z,27.8966,-93.5973,1014.43,11111222 
TABS,ioos:station:wmo:42047:1,2012-10-03T07:30:00Z,27.8966,-93.5973,1014.38,11111222 
TABS,ioos:station:wmo:42047:1,2012-10-03T08:00:00Z,27.8966,-93.5973,1014.23,11111222 
TABS,ioos:station:wmo:42047:1,2012-10-03T08:30:00Z,27.8966,-93.5973,1013.99,11111222 
TABS,ioos:station:wmo:42047:1,2012-10-03T09:00:00Z,27.8966,-93.5973,1013.99,11111222 
TABS,ioos:station:wmo:42047:1,2012-10-03T09:30:00Z,27.8966,-93.5973,1014.06,11111222 
TABS,ioos:station:wmo:42047:1,2012-10-03T10:00:00Z,27.8966,-93.5973,1014.25,11111222 
TABS,ioos:station:wmo:42047:1,2012-10-03T10:30:00Z,27.8966,-93.5973,1014.51,11111222 
TABS,ioos:station:wmo:42047:1,2012-10-03T11:00:00Z,27.8966,-93.5973,1014.6,11111222 
TABS,ioos:station:wmo:42047:1,2012-10-03T11:30:00Z,27.8966,-93.5973,1014.73,11111222 
TABS,ioos:station:wmo:42047:1,2012-10-03T12:00:00Z,27.8966,-93.5973,1014.88,11111222 
TABS,ioos:station:wmo:42047:1,2012-10-03T12:30:00Z,27.8966,-93.5973,1014.91,11111222 
TABS,ioos:station:wmo:42047:1,2012-10-03T13:00:00Z,27.8966,-93.5973,1015.21,11111222 
TABS,ioos:station:wmo:42047:1,2012-10-03T13:30:00Z,27.8966,-93.5973,1015.56,11111222 
TABS,ioos:station:wmo:42047:1,2012-10-03T14:00:00Z,27.8966,-93.5973,1016.08,11111222 
TABS,ioos:station:wmo:42047:1,2012-10-03T14:30:00Z,27.8966,-93.5973,1016.38,11111222 
TABS,ioos:station:wmo:42047:1,2012-10-03T15:00:00Z,27.8966,-93.5973,1016.66,11111222 
TABS,ioos:station:wmo:42047:1,2012-10-03T15:30:00Z,27.8966,-93.5973,1016.89,11111222 
TABS,ioos:station:wmo:42047:1,2012-10-03T16:00:00Z,27.8966,-93.5973,1017.03,11111222 
TABS,ioos:station:wmo:42047:1,2012-10-03T16:30:00Z,27.8966,-93.5973,1017.16,11111222 
TABS,ioos:station:wmo:42047:1,2012-10-03T17:00:00Z,27.8966,-93.5973,1017.15,11111222 
TABS,ioos:station:wmo:42047:1,2012-10-03T17:30:00Z,27.8966,-93.5973,1016.98,11111222 
TABS,ioos:station:wmo:42047:1,2012-10-03T18:00:00Z,27.8966,-93.5973,1016.76,11111222 
TABS,ioos:station:wmo:42047:1,2012-10-03T18:30:00Z,27.8966,-93.5973,1016.54,11111222 
TABS,ioos:station:wmo:42047:1,2012-10-03T19:00:00Z,27.8966,-93.5973,1016.33,11111222 
TABS,ioos:station:wmo:42047:1,2012-10-03T19:30:00Z,27.8966,-93.5973,1016.01,11111222 
TABS,ioos:station:wmo:42047:1,2012-10-03T20:00:00Z,27.8966,-93.5973,1015.93,11111222 
TABS,ioos:station:wmo:42047:1,2012-10-03T20:30:00Z,27.8966,-93.5973,1015.95,11111222 
TABS,ioos:station:wmo:42047:1,2012-10-03T21:00:00Z,27.8966,-93.5973,1016.04,11111222 
TABS,ioos:station:wmo:42047:1,2012-10-03T21:30:00Z,27.8966,-93.5973,1016.19,11111222 
TABS,ioos:station:wmo:42047:1,2012-10-03T22:00:00Z,27.8966,-93.5973,1016.1,11111222 
TABS,ioos:station:wmo:42047:1,2012-10-03T22:30:00Z,27.8966,-93.5973,1016.26,11111222 
TABS,ioos:station:wmo:42047:1,2012-10-03T23:00:00Z,27.8966,-93.5973,1016.45,11111222 
TABS,ioos:station:wmo:42047:1,2012-10-03T23:30:00Z,27.8966,-93.5973,1016.46,11111222 
TABS,ioos:station:wmo:42047:1,2012-10-04T00:00:00Z,27.8966,-93.5973,1016.61,11111222 
TABS,ioos:station:wmo:42047:1,2012-10-04T00:30:00Z,27.8966,-93.5973,1016.82,11111222 
TABS,ioos:station:wmo:42047:1,2012-10-04T01:00:00Z,27.8966,-93.5973,1017.17,11111222 
TABS,ioos:station:wmo:42047:1,2012-10-04T01:30:00Z,27.8966,-93.5973,1017.56,11111222 
TABS,ioos:station:wmo:42047:1,2012-10-04T02:00:00Z,27.8966,-93.5973,1017.84,11111222 
TABS,ioos:station:wmo:42047:1,2012-10-04T02:30:00Z,27.8966,-93.5973,1018.12,11111222 
TABS,ioos:station:wmo:42047:1,2012-10-04T03:00:00Z,27.8966,-93.5973,1018.41,11111222 
TABS,ioos:station:wmo:42047:1,2012-10-04T03:30:00Z,27.8966,-93.5973,1018.58,11111222 
TABS,ioos:station:wmo:42047:1,2012-10-04T04:00:00Z,27.8966,-93.5973,1018.58,11111222 
TABS,ioos:station:wmo:42047:1,2012-10-04T04:30:00Z,27.8966,-93.5973,1018.61,11111222 
TABS,ioos:station:wmo:42047:1,2012-10-04T05:00:00Z,27.8966,-93.5973,1018.44,11111222 
TABS,ioos:station:wmo:42047:1,2012-10-04T05:30:00Z,27.8966,-93.5973,1018.29,11111222 
TABS,ioos:station:wmo:42047:1,2012-10-04T06:00:00Z,27.8966,-93.5973,1018.12,11111222 
TABS,ioos:station:wmo:42047:1,2012-10-04T06:30:00Z,27.8966,-93.5973,1018.13,11111222 
TABS,ioos:station:wmo:42047:1,2012-10-04T07:00:00Z,27.8966,-93.5973,1018.28,11111222 
TABS,ioos:station:wmo:42047:1,2012-10-04T07:30:00Z,27.8966,-93.5973,1018.3,11111222 
TABS,ioos:station:wmo:42047:1,2012-10-04T08:00:00Z,27.8966,-93.5973,1018.4,11111222 
TABS,ioos:station:wmo:42047:1,2012-10-04T08:30:00Z,27.8966,-93.5973,1018.45,11111222 
TABS,ioos:station:wmo:42047:1,2012-10-04T09:00:00Z,27.8966,-93.5973,1018.57,11111222 
TABS,ioos:station:wmo:42047:1,2012-10-04T09:30:00Z,27.8966,-93.5973,1018.7,11111222 
TABS,ioos:station:wmo:42047:1,2012-10-04T10:00:00Z,27.8966,-93.5973,1018.89,11111222 
TABS,ioos:station:wmo:42047:1,2012-10-04T10:30:00Z,27.8966,-93.5973,1019.07,11111222 
TABS,ioos:station:wmo:42047:1,2012-10-04T11:00:00Z,27.8966,-93.5973,1019.4,11111222 
TABS,ioos:station:wmo:42047:1,2012-10-04T11:30:00Z,27.8966,-93.5973,1019.64,11111222 
TABS,ioos:station:wmo:42047:1,2012-10-04T12:00:00Z,27.8966,-93.5973,1019.84,11111222 
TABS,ioos:station:wmo:42047:1,2012-10-04T12:30:00Z,27.8966,-93.5973,1020.13,11111222 
TABS,ioos:station:wmo:42047:1,2012-10-04T13:00:00Z,27.8966,-93.5973,1020.47,11111222 
TABS,ioos:station:wmo:42047:1,2012-10-04T13:30:00Z,27.8966,-93.5973,1020.8,11111222 
TABS,ioos:station:wmo:42047:1,2012-10-04T14:00:00Z,27.8966,-93.5973,1021.01,11111222 
TABS,ioos:station:wmo:42047:1,2012-10-04T14:30:00Z,27.8966,-93.5973,1021.28,11111222 
TABS,ioos:station:wmo:42047:1,2012-10-04T15:00:00Z,27.8966,-93.5973,1021.4,11111222 
TABS,ioos:station:wmo:42047:1,2012-10-04T15:30:00Z,27.8966,-93.5973,1021.38,11111222 
TABS,ioos:station:wmo:42047:1,2012-10-04T16:00:00Z,27.8966,-93.5973,1021.47,11111222 
TABS,ioos:station:wmo:42047:1,2012-10-04T16:30:00Z,27.8966,-93.5973,1021.51,11111222 
TABS,ioos:station:wmo:42047:1,2012-10-04T17:00:00Z,27.8966,-93.5973,1021.52,11111222 
TABS,ioos:station:wmo:42047:1,2012-10-04T17:30:00Z,27.8966,-93.5973,1021.34,11111222 
TABS,ioos:station:wmo:42047:1,2012-10-04T18:00:00Z,27.8966,-93.5973,1021.04,11111222 
TABS,ioos:station:wmo:42047:1,2012-10-04T18:30:00Z,27.8966,-93.5973,1020.82,11111222 
TABS,ioos:station:wmo:42047:1,2012-10-04T19:00:00Z,27.8966,-93.5973,1020.49,11111222 
TABS,ioos:station:wmo:42047:1,2012-10-04T19:30:00Z,27.8966,-93.5973,1020.21,11111222 
TABS,ioos:station:wmo:42047:1,2012-10-04T20:00:00Z,27.8966,-93.5973,1019.91,11111222 
TABS,ioos:station:wmo:42047:1,2012-10-04T20:30:00Z,27.8966,-93.5973,1019.97,11111222 
TABS,ioos:station:wmo:42047:1,2012-10-04T21:00:00Z,27.8966,-93.5973,1019.85,11111222 
TABS,ioos:station:wmo:42047:1,2012-10-04T21:30:00Z,27.8966,-93.5973,1019.72,11111222 
TABS,ioos:station:wmo:42047:1,2012-10-04T22:00:00Z,27.8966,-93.5973,1019.69,11111222 
TABS,ioos:station:wmo:42047:1,2012-10-04T22:30:00Z,27.8966,-93.5973,1019.46,11111222 
TABS,ioos:station:wmo:42047:1,2012-10-04T23:00:00Z,27.8966,-93.5973,1019.6,11111222 
TABS,ioos:station:wmo:42047:1,2012-10-04T23:30:00Z,27.8966,-93.5973,1019.59,11111222 
TABS,ioos:station:wmo:42047:1,2012-10-05T00:00:00Z,27.8966,-93.5973,1019.71,11111222 
TABS,ioos:station:wmo:42047:1,2012-10-05T00:30:00Z,27.8966,-93.5973,1019.73,11111222 
TABS,ioos:station:wmo:42047:1,2012-10-05T01:00:00Z,27.8966,-93.5973,1019.7,11111222 
TABS,ioos:station:wmo:42047:1,2012-10-05T01:30:00Z,27.8966,-93.5973,1020.08,11111222 
TABS,ioos:station:wmo:42047:1,2012-10-05T02:00:00Z,27.8966,-93.5973,1020.15,11111222 
TABS,ioos:station:wmo:42047:1,2012-10-05T02:30:00Z,27.8966,-93.5973,1020.14,11111222 
TABS,ioos:station:wmo:42047:1,2012-10-05T03:00:00Z,27.8966,-93.5973,1020.14,11111222 
TABS,ioos:station:wmo:42047:1,2012-10-05T03:30:00Z,27.8966,-93.5973,1020.18,11111222 
TABS,ioos:station:wmo:42047:1,2012-10-05T04:00:00Z,27.8966,-93.5973,1020.05,11111222 
TABS,ioos:station:wmo:42047:1,2012-10-05T04:30:00Z,27.8966,-93.5973,1019.87,11111222 
TABS,ioos:station:wmo:42047:1,2012-10-05T05:00:00Z,27.8966,-93.5973,1019.8,11111222 
TABS,ioos:station:wmo:42047:1,2012-10-05T05:30:00Z,27.8966,-93.5973,1019.51,11111222 
TABS,ioos:station:wmo:42047:1,2012-10-05T06:00:00Z,27.8966,-93.5973,1019.3,11111222 
TABS,ioos:station:wmo:42047:1,2012-10-05T06:30:00Z,27.8966,-93.5973,1018.99,11111222 
TABS,ioos:station:wmo:42047:1,2012-10-05T07:00:00Z,27.8966,-93.5973,1018.98,11111222 
TABS,ioos:station:wmo:42047:1,2012-10-05T07:30:00Z,27.8966,-93.5973,1018.83,11111222 
TABS,ioos:station:wmo:42047:1,2012-10-05T08:00:00Z,27.8966,-93.5973,1018.72,11111222 
TABS,ioos:station:wmo:42047:1,2012-10-05T08:30:00Z,27.8966,-93.5973,1018.61,11111222 
TABS,ioos:station:wmo:42047:1,2012-10-05T09:00:00Z,27.8966,-93.5973,1018.49,11111222 
TABS,ioos:station:wmo:42047:1,2012-10-05T09:30:00Z,27.8966,-93.5973,1018.42,11111222 
TABS,ioos:station:wmo:42047:1,2012-10-05T10:00:00Z,27.8966,-93.5973,1018.46,11111222 
TABS,ioos:station:wmo:42047:1,2012-10-05T10:30:00Z,27.8966,-93.5973,1018.57,11111222 
TABS,ioos:station:wmo:42047:1,2012-10-05T11:00:00Z,27.8966,-93.5973,1018.78,11111222 
TABS,ioos:station:wmo:42047:1,2012-10-05T11:30:00Z,27.8966,-93.5973,1018.84,11111222 
TABS,ioos:station:wmo:42047:1,2012-10-05T12:00:00Z,27.8966,-93.5973,1018.98,11111222 
TABS,ioos:station:wmo:42047:1,2012-10-05T12:30:00Z,27.8966,-93.5973,1019.1,11111222 
TABS,ioos:station:wmo:42047:1,2012-10-05T13:00:00Z,27.8966,-93.5973,1019.06,11111222 
TABS,ioos:station:wmo:42047:1,2012-10-05T13:30:00Z,27.8966,-93.5973,1019.28,11111222 
TABS,ioos:station:wmo:42047:1,2012-10-05T14:00:00Z,27.8966,-93.5973,1019.46,11111222 
TABS,ioos:station:wmo:42047:1,2012-10-05T14:30:00Z,27.8966,-93.5973,1019.63,11111222 
TABS,ioos:station:wmo:42047:1,2012-10-05T15:00:00Z,27.8966,-93.5973,1019.6,11111222 
TABS,ioos:station:wmo:42047:1,2012-10-05T15:30:00Z,27.8966,-93.5973,1019.64,11111222 
TABS,ioos:station:wmo:42047:1,2012-10-05T16:00:00Z,27.8966,-93.5973,1019.72,11111222 
TABS,ioos:station:wmo:42047:1,2012-10-05T16:30:00Z,27.8966,-93.5973,1019.62,11111222 
TABS,ioos:station:wmo:42047:1,2012-10-05T17:00:00Z,27.8966,-93.5973,1019.28,11111222 
TABS,ioos:station:wmo:42047:1,2012-10-05T17:30:00Z,27.8966,-93.5973,1018.87,11111222 
TABS,ioos:station:wmo:42047:1,2012-10-05T18:00:00Z,27.8966,-93.5973,1018.54,11111222 
TABS,ioos:station:wmo:42047:1,2012-10-05T18:30:00Z,27.8966,-93.5973,1017.98,11111222 
TABS,ioos:station:wmo:42047:1,2012-10-05T19:00:00Z,27.8966,-93.5973,1017.53,11111222 
TABS,ioos:station:wmo:42047:1,2012-10-05T19:30:00Z,27.8966,-93.5973,1017.11,11111222 
TABS,ioos:station:wmo:42047:1,2012-10-05T20:00:00Z,27.8966,-93.5973,1016.73,11111222 
TABS,ioos:station:wmo:42047:1,2012-10-05T20:30:00Z,27.8966,-93.5973,1016.49,11111222 
TABS,ioos:station:wmo:42047:1,2012-10-05T21:00:00Z,27.8966,-93.5973,1016.37,11111222 
TABS,ioos:station:wmo:42047:1,2012-10-05T21:30:00Z,27.8966,-93.5973,1016.22,11111222 
TABS,ioos:station:wmo:42047:1,2012-10-05T22:00:00Z,27.8966,-93.5973,1016.04,11111222 
TABS,ioos:station:wmo:42047:1,2012-10-05T22:30:00Z,27.8966,-93.5973,1015.97,11111222 
TABS,ioos:station:wmo:42047:1,2012-10-05T23:00:00Z,27.8966,-93.5973,1015.98,11111222 
TABS,ioos:station:wmo:42047:1,2012-10-05T23:30:00Z,27.8966,-93.5973,1016.02,11111222 
TABS,ioos:station:wmo:42047:1,2012-10-06T00:00:00Z,27.8966,-93.5973,1016.07,11111222 
TABS,ioos:station:wmo:42047:1,2012-10-06T00:30:00Z,27.8966,-93.5973,1016.04,11111222 
TABS,ioos:station:wmo:42047:1,2012-10-06T01:00:00Z,27.8966,-93.5973,1015.96,11111222 
TABS,ioos:station:wmo:42047:1,2012-10-06T01:30:00Z,27.8966,-93.5973,1016.01,11111222 
TABS,ioos:station:wmo:42047:1,2012-10-06T02:00:00Z,27.8966,-93.5973,1016.05,11111222 
TABS,ioos:station:wmo:42047:1,2012-10-06T02:30:00Z,27.8966,-93.5973,1016.22,11111222 
TABS,ioos:station:wmo:42047:1,2012-10-06T03:00:00Z,27.8966,-93.5973,1016.19,11111222 
TABS,ioos:station:wmo:42047:1,2012-10-06T03:30:00Z,27.8966,-93.5973,1016.09,11111222 
TABS,ioos:station:wmo:42047:1,2012-10-06T04:00:00Z,27.8966,-93.5973,1015.96,11111222 
TABS,ioos:station:wmo:42047:1,2012-10-06T04:30:00Z,27.8966,-93.5973,1015.96,11111222 
TABS,ioos:station:wmo:42047:1,2012-10-06T05:00:00Z,27.8966,-93.5973,1015.73,11111222 
TABS,ioos:station:wmo:42047:1,2012-10-06T05:30:00Z,27.8966,-93.5973,1015.56,11111222 
TABS,ioos:station:wmo:42047:1,2012-10-06T06:00:00Z,27.8966,-93.5973,1015.62,11111222 
TABS,ioos:station:wmo:42047:1,2012-10-06T06:30:00Z,27.8966,-93.5973,1015.43,11111222 
TABS,ioos:station:wmo:42047:1,2012-10-06T07:00:00Z,27.8966,-93.5973,1015.36,11111222 
TABS,ioos:station:wmo:42047:1,2012-10-06T07:30:00Z,27.8966,-93.5973,1015.31,11111222 
TABS,ioos:station:wmo:42047:1,2012-10-06T08:00:00Z,27.8966,-93.5973,1015.14,11111222 
TABS,ioos:station:wmo:42047:1,2012-10-06T08:30:00Z,27.8966,-93.5973,1014.85,11111222 
TABS,ioos:station:wmo:42047:1,2012-10-06T09:00:00Z,27.8966,-93.5973,1014.87,11111222 
TABS,ioos:station:wmo:42047:1,2012-10-06T09:30:00Z,27.8966,-93.5973,1015.03,11111222 
TABS,ioos:station:wmo:42047:1,2012-10-06T10:00:00Z,27.8966,-93.5973,1015.11,11111222 
TABS,ioos:station:wmo:42047:1,2012-10-06T10:30:00Z,27.8966,-93.5973,1015.27,11111222 
TABS,ioos:station:wmo:42047:1,2012-10-06T11:00:00Z,27.8966,-93.5973,1015.35,11111222 
TABS,ioos:station:wmo:42047:1,2012-10-06T11:30:00Z,27.8966,-93.5973,1015.38,11111222 
TABS,ioos:station:wmo:42047:1,2012-10-06T12:00:00Z,27.8966,-93.5973,1015.51,11111222 
TABS,ioos:station:wmo:42047:1,2012-10-06T12:30:00Z,27.8966,-93.5973,1015.61,11111222 
TABS,ioos:station:wmo:42047:1,2012-10-06T13:00:00Z,27.8966,-93.5973,1015.9,11111222 
TABS,ioos:station:wmo:42047:1,2012-10-06T13:30:00Z,27.8966,-93.5973,1015.94,11111222 
TABS,ioos:station:wmo:42047:1,2012-10-06T14:00:00Z,27.8966,-93.5973,1016.14,11111222 
TABS,ioos:station:wmo:42047:1,2012-10-06T14:30:00Z,27.8966,-93.5973,1016.41,11111222 
TABS,ioos:station:wmo:42047:1,2012-10-06T15:00:00Z,27.8966,-93.5973,1016.56,11111222 
TABS,ioos:station:wmo:42047:1,2012-10-06T15:30:00Z,27.8966,-93.5973,1016.58,11111222 
TABS,ioos:station:wmo:42047:1,2012-10-06T16:00:00Z,27.8966,-93.5973,1016.61,11111222 
TABS,ioos:station:wmo:42047:1,2012-10-06T16:30:00Z,27.8966,-93.5973,1016.46,11111222 
TABS,ioos:station:wmo:42047:1,2012-10-06T17:00:00Z,27.8966,-93.5973,1016.36,11111222 
TABS,ioos:station:wmo:42047:1,2012-10-06T17:30:00Z,27.8966,-93.5973,1016.09,11111222 
TABS,ioos:station:wmo:42047:1,2012-10-06T18:00:00Z,27.8966,-93.5973,1015.63,11111222 
TABS,ioos:station:wmo:42047:1,2012-10-06T18:30:00Z,27.8966,-93.5973,1015.26,11111222 